Tillbaka till svenska Fidonet
English   Information   Debug  
FILM   0/18
FNEWS_PUBLISH   4983
FN_SYSOP   42232
FN_SYSOP_OLD1   71952
FTP_FIDO   0/2
FTSC_PUBLIC   0/13976
FUNNY   0/4886
GENEALOGY.EUR   0/71
GET_INFO   105
GOLDED   0/408
HAM   3038/16727
HOLYSMOKE   0/6791
HOT_SITES   0/1
HTMLEDIT   0/71
HUB203   466
HUB_100   264
HUB_400   39
HUMOR   0/29
IC   1490/2851
INTERNET   0/424
INTERUSER   0/3
IP_CONNECT   719
JAMNNTPD   0/233
JAMTLAND   0/47
KATTY_KORNER   0/41
LAN   0/16
LINUX-USER   0/19
LINUXHELP   0/1155
LINUX   0/22393
LINUX_BBS   0/957
mail   18.68
mail_fore_ok   249
MENSA   0/341
MODERATOR   0/102
MONTE   0/992
MOSCOW_OKLAHOMA   0/1245
MUFFIN   0/783
MUSIC   218/321
N203_STAT   938
N203_SYSCHAT   313
NET203   321
NET204   69
NET_DEV   0/10
NORD.ADMIN   0/101
NORD.CHAT   0/2572
NORD.FIDONET   189
NORD.HARDWARE   0/28
NORD.KULTUR   0/114
NORD.PROG   0/32
NORD.SOFTWARE   0/88
NORD.TEKNIK   0/58
NORD   0/453
OCCULT_CHAT   0/93
OS2BBS   0/787
OS2DOSBBS   0/580
OS2HW   0/42
OS2INET   0/37
OS2LAN   0/134
OS2PROG   0/36
OS2REXX   0/113
OS2USER-L   207
OS2   0/4831
OSDEBATE   0/18996
PASCAL   0/490
PERL   0/457
PHP   0/45
POINTS   0/405
POLITICS   0/29554
POL_INC   5910/14731
PSION   103
R20_ADMIN   1133
R20_AMATORRADIO   0/2
R20_BEST_OF_FIDONET   16
R20_CHAT   0/897
R20_DEPP   0/3
R20_DEV   400
R20_ECHO2   1891
R20_ECHOPRES   0/35
R20_ESTAT   0/719
R20_FIDONETPROG...
...RAM.MYPOINT
  0/2
R20_FIDONETPROGRAM   0/22
R20_FIDONET   0/248
R20_FILEFIND   0/24
R20_FILEFOUND   0/22
R20_HIFI   0/3
R20_INFO2   3784
R20_INTERNET   0/12940
R20_INTRESSE   0/60
R20_INTR_KOM   0/99
R20_KANDIDAT.CHAT   42
R20_KANDIDAT   28
R20_KOM_DEV   112
R20_KONTROLL   0/13360
R20_KORSET   0/18
R20_LOKALTRAFIK   0/24
R20_MODERATOR   0/1852
R20_NC   76
R20_NET200   245
R20_NETWORK.OTH...
...ERNETS
  0/13
R20_OPERATIVSYS...
...TEM.LINUX
  0/44
R20_PROGRAMVAROR   0/1
R20_REC2NEC   534
R20_SFOSM   0/341
R20_SF   0/108
R20_SPRAK.ENGLISH   0/1
R20_SQUISH   107
R20_TEST   2
R20_WORST_OF_FIDONET   20
RAR   0/9
RA_MULTI   106
RA_UTIL   0/162
REGCON.EUR   0/2069
REGCON   0/13
SCIENCE   0/1206
SF   0/239
SHAREWARE_SUPPORT   0/5146
SHAREWRE   0/14
SIMPSONS   0/169
STATS_OLD1   0/2539.065
STATS_OLD2   0/2530
STATS_OLD3   0/2395.095
STATS_OLD4   0/1692.25
SURVIVOR   0/495
SYSOPS_CORNER   0/3
SYSOP   0/84
TAGLINES   0/112
TEAMOS2   0/4530
TECH   0/2617
TEST.444   0/105
TRAPDOOR   0/19
TREK   0/755
TUB   0/290
UFO   0/40
UNIX   0/1316
USA_EURLINK   0/102
USR_MODEMS   0/1
VATICAN   0/2740
VIETNAM_VETS   0/14
VIRUS   0/378
VIRUS_INFO   113/201
VISUAL_BASIC   0/473
WHITEHOUSE   0/5187
WIN2000   0/101
WIN32   0/30
WIN95   659/4291
WIN95_OLD1   0/70272
WINDOWS   0/1517
WWB_SYSOP   0/419
WWB_TECH   742/810
ZCC-PUBLIC   0/1
ZEC   4

 
4DOS   0/134
ABORTION   0/7
ALASKA_CHAT   0/506
ALLFIX_FILE   0/1313
ALLFIX_FILE_OLD1   0/7997
ALT_DOS   0/152
AMATEUR_RADIO   0/1039
AMIGASALE   0/14
AMIGA   0/331
AMIGA_INT   0/1
AMIGA_PROG   0/20
AMIGA_SYSOP   0/26
ANIME   7/15
ARGUS   0/924
ASCII_ART   0/340
ASIAN_LINK   0/651
ASTRONOMY   0/417
AUDIO   0/92
AUTOMOBILE_RACING   0/105
BABYLON5   0/17862
BAG   135
BATPOWER   0/361
BBBS.ENGLISH   0/382
BBSLAW   0/109
BBS_ADS   0/5290
BBS_INTERNET   0/507
BIBLE   1008/3563
BINKD   0/1119
BINKLEY   0/215
BLUEWAVE   0/2173
CABLE_MODEMS   0/25
CBM   0/46
CDRECORD   0/66
CDROM   0/20
CLASSIC_COMPUTER   0/378
COMICS   0/15
CONSPRCY   0/899
COOKING   42028
COOKING_OLD1   0/24719
COOKING_OLD2   0/40862
COOKING_OLD3   0/37489
COOKING_OLD4   27021/35496
COOKING_OLD5   9370
C_ECHO   0/189
C_PLUSPLUS   0/31
DIRTY_DOZEN   0/201
DOORGAMES   0/2333
DOS_INTERNET   0/196
duplikat   6102
ECHOLIST   10597/18295
EC_SUPPORT   301/318
ELECTRONICS   0/359
ELEKTRONIK.GER   1534
ENET.LINGUISTIC   0/13
ENET.POLITICS   0/4
ENET.SOFT   0/11701
ENET.SYSOP   34336
ENET.TALKS   0/32
ENGLISH_TUTOR   0/2000
EVOLUTION   786/1335
FDECHO   0/217
FDN_ANNOUNCE   278/7068
FIDONEWS   25122
FIDONEWS_OLD1   0/49742
FIDONEWS_OLD2   0/35949
FIDONEWS_OLD3   0/30874
FIDONEWS_OLD4   0/37224
FIDO_SYSOP   12973
FIDO_UTIL   0/180
FILEFIND   0/209
FILEGATE   0/212
Möte HAM, 16727 texter
 lista första sista föregående nästa
Text 4806, 937 rader
Skriven 2011-11-03 22:31:06 av Amsat List (1:323/120.0)
Ärende: [keps] orb11307.amsa
============================
[keps] orb11307.amsa

Sender: keps-bounces@amsat.org
Return-Path: <keps-bounces@amsat.org>
X-Rcpt: craig.healy@chowda.com
X-UIDL: 1320377138.1789

SB KEPS @ AMSAT  $ORB11307.O
Orbital Elements  11307.OSCAR

HR AMSAT ORBITAL ELEMENTS FOR OSCAR SATELLITES
FROM WA5QGD FORT WORTH,TX November 3, 2011
Send Subscribe/unsubscribe to KEPS at http://www.amsat.org/mailman/listinfo/kep
BID: ORB11307.O
TO ALL RADIO AMATEURS BT

Satellite: AO-07
Catalog number: 07530
Epoch time:      11306.85881168
Element set:     220
Inclination:      101.3972 deg
RA of node:       307.9454 deg
Eccentricity:    0.0012060
Arg of perigee:   008.5310 deg
Mean anomaly:     351.5961 deg
Mean motion:   12.53585167 rev/day
Decay rate:       -2.7e-07 rev/day^2
Epoch rev:           69156
Checksum:              284

Satellite: FO-29
Catalog number: 24278
Epoch time:      11306.93499383
Element set:    0713
Inclination:      098.5680 deg
RA of node:       072.5085 deg
Eccentricity:    0.0349696
Arg of perigee:   257.7288 deg
Mean anomaly:     098.4493 deg
Mean motion:   13.52967931 rev/day
Decay rate:        8.9e-07 rev/day^2
Epoch rev:           75122
Checksum:              371

Satellite: SO-33
Catalog number: 25509
Epoch time:      11306.68146097
Element set:    0091
Inclination:      031.4322 deg
RA of node:       180.9573 deg
Eccentricity:    0.0353001
Arg of perigee:   012.7761 deg
Mean anomaly:     348.1593 deg
Mean motion:   14.28490110 rev/day
Decay rate:       7.32e-06 rev/day^2
Epoch rev:           68009
Checksum:              281

Satellite: RS-22
Catalog number: 27939
Epoch time:      11306.79669286
Element set:    0774
Inclination:      097.8271 deg
RA of node:       154.0556 deg
Eccentricity:    0.0012378
Arg of perigee:   265.4622 deg
Mean anomaly:     094.5168 deg
Mean motion:   14.63717516 rev/day
Decay rate:       9.75e-06 rev/day^2
Epoch rev:           43261
Checksum:              345

Satellite: VO-52
Catalog number: 28650
Epoch time:      11306.82846997
Element set:    0941
Inclination:      097.6258 deg
RA of node:       343.6514 deg
Eccentricity:    0.0028038
Arg of perigee:   067.9711 deg
Mean anomaly:     292.4488 deg
Mean motion:   14.82328362 rev/day
Decay rate:      1.979e-05 rev/day^2
Epoch rev:           35128
Checksum:              351

Satellite: SO-67
Catalog number: 35870
Epoch time:      11307.21869569
Element set:     370
Inclination:      097.2640 deg
RA of node:       345.8669 deg
Eccentricity:    0.0000633
Arg of perigee:   230.3544 deg
Mean anomaly:     202.2130 deg
Mean motion:   15.21617716 rev/day
Decay rate:      5.632e-05 rev/day^2
Epoch rev:           11807
Checksum:              295

Satellite: HO-68
Catalog number: 36122
Epoch time:      11307.18093594
Element set:     887
Inclination:      100.3985 deg
RA of node:       005.7806 deg
Eccentricity:    0.0007162
Arg of perigee:   267.5155 deg
Mean anomaly:     092.5142 deg
Mean motion:   13.16289666 rev/day
Decay rate:       -4.4e-07 rev/day^2
Epoch rev:            9052
Checksum:              308

/EX
SB KEPS @ AMSAT  $ORB11307.D
Orbital Elements  11307.MICROS

HR AMSAT ORBITAL ELEMENTS FOR THE MICROSATS
FROM WA5QGD FORT WORTH,TX November 3, 2011
Send Subscribe/unsubscribe to KEPS at http://www.amsat.org/mailman/listinfo/kep
BID: ORB11307.D
TO ALL RADIO AMATEURS BT

Satellite: UO-11
Catalog number: 14781
Epoch time:      11306.80150961
Element set:    0701
Inclination:      097.9883 deg
RA of node:       002.9482 deg
Eccentricity:    0.0010043
Arg of perigee:   053.9116 deg
Mean anomaly:     306.3024 deg
Mean motion:   14.80118248 rev/day
Decay rate:      1.037e-05 rev/day^2
Epoch rev:           48629
Checksum:              278

Satellite: AO-16
Catalog number: 20439
Epoch time:      11306.86488854
Element set:     316
Inclination:      098.4009 deg
RA of node:       251.9559 deg
Eccentricity:    0.0011665
Arg of perigee:   109.7589 deg
Mean anomaly:     250.4851 deg
Mean motion:   14.31962669 rev/day
Decay rate:       2.33e-06 rev/day^2
Epoch rev:           13746
Checksum:              332

Satellite: LO-19
Catalog number: 20442
Epoch time:      11306.85288090
Element set:    0244
Inclination:      098.3652 deg
RA of node:       255.7721 deg
Eccentricity:    0.0012738
Arg of perigee:   103.3346 deg
Mean anomaly:     256.9260 deg
Mean motion:   14.32185515 rev/day
Decay rate:       1.83e-06 rev/day^2
Epoch rev:           13764
Checksum:              294

Satellite: AO-27
Catalog number: 22825
Epoch time:      11306.54283127
Element set:    0953
Inclination:      098.5474 deg
RA of node:       248.2369 deg
Eccentricity:    0.0007780
Arg of perigee:   224.3703 deg
Mean anomaly:     135.6848 deg
Mean motion:   14.29383597 rev/day
Decay rate:       2.04e-06 rev/day^2
Epoch rev:           94395
Checksum:              334

Satellite: IO-26
Catalog number: 22826
Epoch time:      11306.86672241
Element set:    0702
Inclination:      098.5405 deg
RA of node:       248.9853 deg
Eccentricity:    0.0008165
Arg of perigee:   219.6377 deg
Mean anomaly:     140.4208 deg
Mean motion:   14.29649944 rev/day
Decay rate:       2.26e-06 rev/day^2
Epoch rev:           94412
Checksum:              320

Satellite: GO-32
Catalog number: 25397
Epoch time:      11306.83179404
Element set:    0620
Inclination:      098.3401 deg
RA of node:       292.0676 deg
Eccentricity:    0.0000767
Arg of perigee:   182.2955 deg
Mean anomaly:     177.8219 deg
Mean motion:   14.23230205 rev/day
Decay rate:        6.3e-07 rev/day^2
Epoch rev:           69168
Checksum:              302

